"Period start","avg(HW err(1)/warn(2) (#))","avg(Visibility (m))","avg(Weather code (#))","avg(Precip intensity (mm/h))","min(HW err(1)/warn(2) (#))","max(HW err(1)/warn(2) (#))","std(HW err(1)/warn(2) (#))","med(HW err(1)/warn(2) (#))","min(Visibility (m))","max(Visibility (m))","std(Visibility (m))","med(Visibility (m))","min(Weather code (#))","max(Weather code (#))","std(Weather code (#))","med(Weather code (#))","min(Precip intensity (mm/h))","max(Precip intensity (mm/h))","std(Precip intensity (mm/h))","med(Precip intensity (mm/h))"
2016-05-19 00:00:00,2,38301,0,0.00,2,2,0,2,30133,50000,5147,38557,0,0,0,0,0.00,0.00,0.00,0.00
2016-05-19 00:10:00,2,39294,0,0.00,2,2,0,2,26564,50000,8873,37068,0,0,0,0,0.00,0.00,0.00,0.00
2016-05-19 00:20:00,2,39410,0,0.00,2,2,0,2,23900,50000,7394,40089,0,0,0,0,0.00,0.00,0.00,0.00
2016-05-19 00:30:00,2,42109,0,0.00,2,2,0,2,32047,50000,6283,42778,0,0,0,0,0.00,0.00,0.00,0.00
2016-05-19 00:40:00,2,34950,0,0.00,2,2,0,2,20044,50000,10691,31846,0,0,0,0,0.00,0.00,0.00,0.00
2016-05-19 00:50:00,2,38976,0,0.00,2,2,0,2,25363,50000,8636,39950,0,0,0,0,0.00,0.00,0.00,0.00
2016-05-19 01:00:00,2,32035,0,0.00,2,2,0,2,18096,41400,6652,34058,0,0,0,0,0.00,0.00,0.00,0.00
2016-05-19 01:10:00,2,34672,0,0.00,2,2,0,2,21046,50000,10202,34300,0,0,0,0,0.00,0.00,0.00,0.00
2016-05-19 01:20:00,2,38444,0,0.00,2,2,0,2,30880,45533,4366,38946,0,0,0,0,0.00,0.00,0.00,0.00
2016-05-19 01:30:00,2,37685,0,0.00,2,2,0,2,24866,47880,5950,38262,0,0,0,0,0.00,0.00,0.00,0.00
2016-05-19 01:40:00,2,32920,0,0.00,2,2,0,2,20239,49480,8389,33257,0,0,0,0,0.00,0.00,0.00,0.00
2016-05-19 01:50:00,2,33698,0,0.00,2,2,0,2,22212,48389,7447,34879,0,0,0,0,0.00,0.00,0.00,0.00
2016-05-19 02:00:00,2,43425,0,0.00,2,2,0,2,34129,50000,4420,44498,0,0,0,0,0.00,0.00,0.00,0.00
2016-05-19 02:10:00,2,33299,0,0.00,2,2,0,2,21844,50000,8568,32670,0,0,0,0,0.00,0.00,0.00,0.00
2016-05-19 02:20:00,2,35445,0,0.00,2,2,0,2,22838,50000,8876,34434,0,0,0,0,0.00,0.00,0.00,0.00
2016-05-19 02:30:00,2,33453,0,0.00,2,2,0,2,16904,50000,9949,31914,0,0,0,0,0.00,0.00,0.00,0.00
2016-05-19 02:40:00,2,36079,0,0.00,2,2,0,2,27597,50000,6735,33567,0,0,0,0,0.00,0.00,0.00,0.00
2016-05-19 02:50:00,2,37346,0,0.00,2,2,0,2,26653,50000,7718,38334,0,0,0,0,0.00,0.00,0.00,0.00
2016-05-19 03:00:00,2,37927,0,0.00,2,2,0,2,22996,50000,7405,36690,0,0,0,0,0.00,0.00,0.00,0.00
2016-05-19 03:10:00,2,35698,0,0.00,2,2,0,2,24600,46665,8025,35129,0,0,0,0,0.00,0.00,0.00,0.00
2016-05-19 03:20:00,2,39125,0,0.00,2,2,0,2,30421,50000,5345,39278,0,0,0,0,0.00,0.00,0.00,0.00
2016-05-19 03:30:00,2,33958,0,0.00,2,2,0,2,18048,50000,11358,33196,0,0,0,0,0.00,0.00,0.00,0.00
2016-05-19 03:40:00,2,46327,0,0.00,2,2,0,2,37525,50000,4390,48864,0,0,0,0,0.00,0.00,0.00,0.00
2016-05-19 03:50:00,2,40851,0,0.00,2,2,0,2,21228,50000,9453,41796,0,0,0,0,0.00,0.00,0.00,0.00
2016-05-19 04:00:00,2,38100,0,0.00,2,2,0,2,28657,50000,6692,37704,0,0,0,0,0.00,0.00,0.00,0.00
2016-05-19 04:10:00,2,41158,0,0.00,2,2,0,2,31878,50000,6827,39494,0,0,0,0,0.00,0.00,0.00,0.00
2016-05-19 04:20:00,2,35250,0,0.00,2,2,0,2,20133,46971,9771,37167,0,0,0,0,0.00,0.00,0.00,0.00
2016-05-19 04:30:00,2,39983,0,0.00,2,2,0,2,27303,50000,8693,41698,0,0,0,0,0.00,0.00,0.00,0.00
2016-05-19 04:40:00,2,47724,0,0.00,2,2,0,2,39414,50000,3547,50000,0,0,0,0,0.00,0.00,0.00,0.00
2016-05-19 04:50:00,2,40482,0,0.00,2,2,0,2,26841,50000,8567,44144,0,0,0,0,0.00,0.00,0.00,0.00
2016-05-19 05:00:00,2,44782,0,0.00,0,2,1,2,33437,50000,6262,47330,0,0,0,0,0.00,0.00,0.00,0.00
2016-05-19 05:10:00,0,49483,0,0.00,0,0,0,0,46160,50000,1176,50000,0,0,0,0,0.00,0.00,0.00,0.00
2016-05-19 05:20:00,0,38383,0,0.00,0,0,0,0,24862,46566,7412,42560,0,0,0,0,0.00,0.00,0.00,0.00
2016-05-19 05:30:00,0,42285,0,0.00,0,0,0,0,34617,50000,5084,41638,0,0,0,0,0.00,0.00,0.00,0.00
2016-05-19 05:40:00,0,41825,0,0.00,0,0,0,0,27748,50000,7600,41766,0,0,0,0,0.00,0.00,0.00,0.00
2016-05-19 05:50:00,0,41326,0,0.00,0,0,0,0,25340,50000,7141,43784,0,0,0,0,0.00,0.00,0.00,0.00
2016-05-19 06:00:00,0,41823,0,0.00,0,2,1,0,33081,50000,6327,41674,0,0,0,0,0.00,0.00,0.00,0.00
2016-05-19 06:10:00,2,44869,0,0.00,2,2,0,2,36412,50000,5425,47486,0,0,0,0,0.00,0.00,0.00,0.00
2016-05-19 06:20:00,2,46717,0,0.00,2,2,0,2,37290,50000,4721,49455,0,0,0,0,0.00,0.00,0.00,0.00
2016-05-19 06:30:00,2,44006,0,0.00,2,2,0,2,34332,50000,4227,44664,0,0,0,0,0.00,0.00,0.00,0.00
2016-05-19 06:40:00,2,43687,0,0.00,2,2,0,2,30189,50000,5956,45946,0,0,0,0,0.00,0.00,0.00,0.00
2016-05-19 06:50:00,2,42277,0,0.00,2,2,0,2,24638,50000,8550,44880,0,0,0,0,0.00,0.00,0.00,0.00
2016-05-19 07:00:00,2,40548,0,0.00,2,2,0,2,27797,49096,7129,41392,0,0,0,0,0.00,0.00,0.00,0.00
2016-05-19 07:10:00,2,44364,0,0.00,2,2,0,2,31167,50000,5793,45592,0,0,0,0,0.00,0.00,0.00,0.00
2016-05-19 07:20:00,2,46691,0,0.00,2,2,0,2,40925,50000,2686,45960,0,0,0,0,0.00,0.00,0.00,0.00
2016-05-19 07:30:00,2,43154,0,0.00,2,2,0,2,36227,50000,4844,44296,0,0,0,0,0.00,0.00,0.00,0.00
2016-05-19 07:40:00,2,42239,0,0.00,2,2,0,2,35669,50000,4857,40771,0,0,0,0,0.00,0.00,0.00,0.00
2016-05-19 07:50:00,2,38872,0,0.00,2,2,0,2,31568,46743,4785,39666,0,0,0,0,0.00,0.00,0.00,0.00
2016-05-19 08:00:00,2,43908,0,0.00,2,2,0,2,30829,49431,5378,44682,0,0,0,0,0.00,0.00,0.00,0.00
2016-05-19 08:10:00,2,42263,0,0.00,2,2,0,2,38081,48774,3756,40879,0,0,0,0,0.00,0.00,0.00,0.00
2016-05-19 08:20:00,2,45496,0,0.00,2,2,0,2,34892,50000,5026,47678,0,0,0,0,0.00,0.00,0.00,0.00
2016-05-19 08:30:00,2,46096,0,0.00,2,2,0,2,39998,50000,4106,47692,0,0,0,0,0.00,0.00,0.00,0.00
2016-05-19 08:40:00,2,47212,0,0.00,2,2,0,2,40210,50000,3276,48806,0,0,0,0,0.00,0.00,0.00,0.00
2016-05-19 08:50:00,2,41805,0,0.00,2,2,0,2,32732,50000,5234,44130,0,0,0,0,0.00,0.00,0.00,0.00
2016-05-19 09:00:00,2,44164,0,0.00,2,2,0,2,37832,50000,3723,44596,0,0,0,0,0.00,0.00,0.00,0.00
2016-05-19 09:10:00,2,42804,0,0.00,2,2,0,2,31797,50000,4807,43022,0,0,0,0,0.00,0.00,0.00,0.00
2016-05-19 09:20:00,2,42734,0,0.00,2,2,0,2,30550,50000,6084,42571,0,0,0,0,0.00,0.00,0.00,0.00
2016-05-19 09:30:00,2,45563,0,0.00,2,2,0,2,39063,50000,3773,46591,0,0,0,0,0.00,0.00,0.00,0.00
2016-05-19 09:40:00,2,44468,0,0.00,2,2,0,2,37606,50000,4198,43912,0,0,0,0,0.00,0.00,0.00,0.00
2016-05-19 09:50:00,2,40713,0,0.00,2,2,0,2,31918,48753,5648,43232,0,0,0,0,0.00,0.00,0.00,0.00
2016-05-19 10:00:00,2,41266,0,0.00,2,2,0,2,33658,49380,4416,40448,0,0,0,0,0.00,0.00,0.00,0.00
2016-05-19 10:10:00,2,48649,0,0.00,2,2,0,2,43853,50000,1942,49986,0,0,0,0,0.00,0.00,0.00,0.00
2016-05-19 10:20:00,2,42493,0,0.00,2,2,0,2,36100,48047,3262,43109,0,0,0,0,0.00,0.00,0.00,0.00
2016-05-19 10:30:00,2,46358,0,0.00,2,2,0,2,35373,50000,4796,49254,0,0,0,0,0.00,0.00,0.00,0.00
2016-05-19 10:40:00,2,43975,0,0.00,2,2,0,2,36407,50000,4727,45554,0,0,0,0,0.00,0.00,0.00,0.00
2016-05-19 10:50:00,2,48181,0,0.00,2,2,0,2,38561,50000,3634,50000,0,0,0,0,0.00,0.00,0.00,0.00
2016-05-19 11:00:00,2,44616,0,0.00,2,2,0,2,37698,50000,4488,45393,0,0,0,0,0.00,0.00,0.00,0.00
2016-05-19 11:10:00,2,41975,0,0.00,2,2,0,2,27522,50000,6199,44082,0,0,0,0,0.00,0.00,0.00,0.00
2016-05-19 11:20:00,2,41348,0,0.00,2,2,0,2,24406,50000,9003,44620,0,0,0,0,0.00,0.00,0.00,0.00
2016-05-19 11:30:00,2,49173,0,0.00,2,2,0,2,42986,50000,2096,50000,0,0,0,0,0.00,0.00,0.00,0.00
2016-05-19 11:40:00,2,45775,0,0.00,2,2,0,2,37547,50000,4149,47241,0,0,0,0,0.00,0.00,0.00,0.00
2016-05-19 11:50:00,2,48883,0,0.00,2,2,0,2,46741,50000,1352,49864,0,0,0,0,0.00,0.00,0.00,0.00
2016-05-19 12:00:00,2,48923,0,0.00,2,2,0,2,45456,50000,1575,49806,0,0,0,0,0.00,0.00,0.00,0.00
2016-05-19 12:10:00,2,48703,0,0.00,2,2,0,2,38486,50000,3433,50000,0,0,0,0,0.00,0.00,0.00,0.00
2016-05-19 12:20:00,2,49795,0,0.00,2,2,0,2,48961,50000,410,50000,0,0,0,0,0.00,0.00,0.00,0.00
2016-05-19 12:30:00,2,49974,0,0.00,2,2,0,2,49739,50000,78,50000,0,0,0,0,0.00,0.00,0.00,0.00
2016-05-19 12:40:00,2,50000,0,0.00,2,2,0,2,50000,50000,0,50000,0,0,0,0,0.00,0.00,0.00,0.00
2016-05-19 12:50:00,2,50000,0,0.00,2,2,0,2,50000,50000,0,50000,0,0,0,0,0.00,0.00,0.00,0.00
2016-05-19 13:00:00,2,49920,0,0.00,2,2,0,2,49201,50000,240,50000,0,0,0,0,0.00,0.00,0.00,0.00
2016-05-19 13:10:00,2,50000,0,0.00,2,2,0,2,50000,50000,0,50000,0,0,0,0,0.00,0.00,0.00,0.00
2016-05-19 13:20:00,2,49765,0,0.00,2,2,0,2,48551,50000,486,50000,0,0,0,0,0.00,0.00,0.00,0.00
2016-05-19 13:30:00,2,50000,0,0.00,2,2,0,2,50000,50000,0,50000,0,0,0,0,0.00,0.00,0.00,0.00
2016-05-19 13:40:00,2,49967,0,0.00,2,2,0,2,49672,50000,98,50000,0,0,0,0,0.00,0.00,0.00,0.00
2016-05-19 13:50:00,2,49950,0,0.00,2,2,0,2,49496,50000,151,50000,0,0,0,0,0.00,0.00,0.00,0.00
2016-05-19 14:00:00,2,49904,0,0.00,2,2,0,2,49260,50000,224,50000,0,0,0,0,0.00,0.00,0.00,0.00
2016-05-19 14:10:00,2,50000,0,0.00,2,2,0,2,50000,50000,0,50000,0,0,0,0,0.00,0.00,0.00,0.00
2016-05-19 14:20:00,2,49991,0,0.00,2,2,0,2,49908,50000,28,50000,0,0,0,0,0.00,0.00,0.00,0.00
2016-05-19 14:30:00,2,49933,0,0.00,2,2,0,2,49327,50000,202,50000,0,0,0,0,0.00,0.00,0.00,0.00
2016-05-19 14:40:00,2,29570,38,0.00,2,2,0,2,19039,43477,7208,30916,0,78,38,36,0.00,0.00,0.00,0.00
2016-05-19 14:50:00,2,37259,78,0.00,2,2,0,2,14791,50000,11579,41962,78,78,0,78,0.00,0.00,0.00,0.00
2016-05-19 15:00:00,2,49814,39,0.00,2,2,0,2,48546,50000,439,50000,0,78,39,39,0.00,0.00,0.00,0.00
2016-05-19 15:10:00,2,50000,0,0.00,2,2,0,2,50000,50000,0,50000,0,0,0,0,0.00,0.00,0.00,0.00
2016-05-19 15:20:00,2,48409,0,0.00,2,2,0,2,41636,50000,2754,50000,0,0,0,0,0.00,0.00,0.00,0.00
2016-05-19 15:30:00,2,49556,0,0.00,2,2,0,2,46611,50000,1030,50000,0,0,0,0,0.00,0.00,0.00,0.00
2016-05-19 15:40:00,2,49751,0,0.00,2,2,0,2,47508,50000,748,50000,0,0,0,0,0.00,0.00,0.00,0.00
2016-05-19 15:50:00,2,50000,0,0.00,2,2,0,2,50000,50000,0,50000,0,0,0,0,0.00,0.00,0.00,0.00
2016-05-19 16:00:00,2,49982,0,0.00,2,2,0,2,49817,50000,55,50000,0,0,0,0,0.00,0.00,0.00,0.00
2016-05-19 16:10:00,2,49927,0,0.00,2,2,0,2,49274,50000,218,50000,0,0,0,0,0.00,0.00,0.00,0.00
2016-05-19 16:20:00,2,49316,0,0.00,2,2,0,2,46053,50000,1388,50000,0,0,0,0,0.00,0.00,0.00,0.00
2016-05-19 16:30:00,2,50000,0,0.00,2,2,0,2,50000,50000,0,50000,0,0,0,0,0.00,0.00,0.00,0.00
2016-05-19 16:40:00,2,49790,0,0.00,2,2,0,2,47898,50000,631,50000,0,0,0,0,0.00,0.00,0.00,0.00
2016-05-19 16:50:00,2,48899,0,0.00,2,2,0,2,43762,50000,1989,50000,0,0,0,0,0.00,0.00,0.00,0.00
2016-05-19 17:00:00,2,49803,0,0.00,2,2,0,2,48307,50000,505,50000,0,0,0,0,0.00,0.00,0.00,0.00
2016-05-19 17:10:00,2,49882,0,0.00,2,2,0,2,48825,50000,352,50000,0,0,0,0,0.00,0.00,0.00,0.00
2016-05-19 17:20:00,2,49815,0,0.00,2,2,0,2,48150,50000,555,50000,0,0,0,0,0.00,0.00,0.00,0.00
2016-05-19 17:30:00,2,48978,0,0.00,2,2,0,2,45330,50000,1756,50000,0,0,0,0,0.00,0.00,0.00,0.00
2016-05-19 17:40:00,2,49727,0,0.00,2,2,0,2,48076,50000,601,50000,0,0,0,0,0.00,0.00,0.00,0.00
2016-05-19 17:50:00,2,49305,0,0.00,2,2,0,2,47950,50000,803,49640,0,0,0,0,0.00,0.00,0.00,0.00
2016-05-19 18:00:00,2,47715,0,0.00,2,2,0,2,37607,50000,3754,50000,0,0,0,0,0.00,0.00,0.00,0.00
2016-05-19 18:10:00,2,49058,0,0.00,2,2,0,2,44984,50000,1513,49900,0,0,0,0,0.00,0.00,0.00,0.00
2016-05-19 18:20:00,2,47438,0,0.00,2,2,0,2,38328,50000,4547,50000,0,0,0,0,0.00,0.00,0.00,0.00
2016-05-19 18:30:00,2,48842,0,0.00,2,2,0,2,43566,50000,2172,50000,0,0,0,0,0.00,0.00,0.00,0.00
2016-05-19 18:40:00,2,45490,0,0.00,2,2,0,2,29107,50000,6307,47707,0,0,0,0,0.00,0.00,0.00,0.00
2016-05-19 18:50:00,2,49672,0,0.00,2,2,0,2,48220,50000,648,50000,0,0,0,0,0.00,0.00,0.00,0.00
2016-05-19 19:00:00,2,49350,0,0.00,2,2,0,2,43496,50000,1951,50000,0,0,0,0,0.00,0.00,0.00,0.00
2016-05-19 19:10:00,2,49770,0,0.00,2,2,0,2,47704,50000,689,50000,0,0,0,0,0.00,0.00,0.00,0.00
2016-05-19 19:20:00,2,48516,0,0.00,2,2,0,2,43581,50000,2363,49940,0,0,0,0,0.00,0.00,0.00,0.00
2016-05-19 19:30:00,2,48462,0,0.00,2,2,0,2,44715,50000,2033,50000,0,0,0,0,0.00,0.00,0.00,0.00
2016-05-19 19:40:00,2,48256,0,0.00,2,2,0,2,42751,50000,2865,50000,0,0,0,0,0.00,0.00,0.00,0.00
2016-05-19 19:50:00,2,47910,0,0.00,2,2,0,2,40182,50000,3553,50000,0,0,0,0,0.00,0.00,0.00,0.00
2016-05-19 20:00:00,2,46874,0,0.00,2,2,0,2,36068,50000,4171,48418,0,0,0,0,0.00,0.00,0.00,0.00
2016-05-19 20:10:00,2,49622,0,0.00,2,2,0,2,48093,50000,757,50000,0,0,0,0,0.00,0.00,0.00,0.00
2016-05-19 20:20:00,2,48849,0,0.00,2,2,0,2,43432,50000,2069,50000,0,0,0,0,0.00,0.00,0.00,0.00
2016-05-19 20:30:00,2,43214,0,0.00,2,2,0,2,34273,50000,5952,44062,0,0,0,0,0.00,0.00,0.00,0.00
2016-05-19 20:40:00,2,48910,0,0.00,2,2,0,2,46681,50000,1444,50000,0,0,0,0,0.00,0.00,0.00,0.00
2016-05-19 20:50:00,2,48487,0,0.00,2,2,0,2,43271,50000,2092,49334,0,0,0,0,0.00,0.00,0.00,0.00
2016-05-19 21:00:00,2,43008,0,0.00,2,2,0,2,15515,50000,11868,49612,0,0,0,0,0.00,0.00,0.00,0.00
2016-05-19 21:10:00,2,40710,22,0.01,2,2,0,2,32629,48855,4564,39188,0,77,33,0,0.00,0.05,0.02,0.00
2016-05-19 21:20:00,2,48303,16,0.00,2,2,0,2,43391,50000,2330,49514,0,78,31,0,0.00,0.00,0.00,0.00
2016-05-19 21:30:00,2,47739,0,0.00,2,2,0,2,40028,50000,3154,49133,0,0,0,0,0.00,0.00,0.00,0.00
2016-05-19 21:40:00,2,42173,0,0.00,2,2,0,2,29687,49463,5494,42592,0,0,0,0,0.00,0.00,0.00,0.00
2016-05-19 21:50:00,2,48345,0,0.00,2,2,0,2,41972,50000,2518,49836,0,0,0,0,0.00,0.00,0.00,0.00
2016-05-19 22:00:00,2,44509,0,0.00,2,2,0,2,35926,50000,4085,45724,0,0,0,0,0.00,0.00,0.00,0.00
2016-05-19 22:10:00,2,42282,0,0.00,2,2,0,2,36377,50000,5688,38674,0,0,0,0,0.00,0.00,0.00,0.00
2016-05-19 22:20:00,2,44642,0,0.00,2,2,0,2,37652,50000,4784,44642,0,0,0,0,0.00,0.00,0.00,0.00
2016-05-19 22:30:00,2,46199,0,0.00,2,2,0,2,38993,50000,3758,46675,0,0,0,0,0.00,0.00,0.00,0.00
2016-05-19 22:40:00,2,44815,0,0.00,2,2,0,2,35702,50000,5098,45121,0,0,0,0,0.00,0.00,0.00,0.00
2016-05-19 22:50:00,2,45437,0,0.00,2,2,0,2,38802,50000,3727,45271,0,0,0,0,0.00,0.00,0.00,0.00
2016-05-19 23:00:00,2,41380,0,0.00,2,2,0,2,29523,50000,8826,43692,0,0,0,0,0.00,0.00,0.00,0.00
2016-05-19 23:10:00,2,38507,0,0.00,2,2,0,2,27764,49430,7509,39150,0,0,0,0,0.00,0.00,0.00,0.00
2016-05-19 23:20:00,2,44802,0,0.00,2,2,0,2,31842,50000,4673,45692,0,0,0,0,0.00,0.00,0.00,0.00
2016-05-19 23:30:00,2,40627,0,0.00,2,2,0,2,30349,50000,7857,41567,0,0,0,0,0.00,0.00,0.00,0.00
2016-05-19 23:40:00,2,40691,0,0.00,2,2,0,2,30315,50000,7396,40367,0,0,0,0,0.00,0.00,0.00,0.00
2016-05-19 23:50:00,2,33610,0,0.00,2,2,0,2,23911,50000,8410,29859,0,0,0,0,0.00,0.00,0.00,0.00
